Time,TemperatureF,DewpointF,PressureIn,WindDirection,WindDirectionDegrees,WindSpeedMPH,WindSpeedGustMPH,Humidity,HourlyPrecipIn,Conditions,Clouds,dailyrainin,SolarRadiationWatts/m^2,SoftwareType,DateUTC
2013-02-20 00:02:00,59.0,55.0,-100.00,SW,220,1.0,-999.0,83,0.00,,,-99.99,0.000000,,2013-02-20 05:02:00,
2013-02-20 00:12:00,59.0,56.0,-100.00,SW,230,3.0,-999.0,86,0.00,,,-99.99,0.000000,,2013-02-20 05:12:00,
2013-02-20 00:22:00,59.0,56.0,-100.00,SW,230,3.0,-999.0,86,0.00,,,-99.99,0.000000,,2013-02-20 05:22:00,
2013-02-20 00:32:00,62.0,58.0,-100.00,SW,231,3.0,-999.0,86,0.00,,,-99.99,0.000000,,2013-02-20 05:32:00,
2013-02-20 00:43:00,63.0,59.0,-100.00,SW,217,3.0,-999.0,86,0.00,,,-99.99,0.000000,,2013-02-20 05:43:00,
2013-02-20 00:52:00,63.0,59.0,-100.00,SW,217,3.0,-999.0,86,0.00,,,-99.99,0.000000,,2013-02-20 05:52:00,
2013-02-20 01:01:00,63.0,59.0,-100.00,SW,222,3.0,-999.0,87,0.00,,,-99.99,0.000000,,2013-02-20 06:01:00,
2013-02-20 01:11:00,63.0,59.0,-100.00,WNW,302,3.0,-999.0,88,0.00,,,-99.99,0.000000,,2013-02-20 06:11:00,
2013-02-20 01:21:00,63.0,59.0,-100.00,WNW,302,3.0,-999.0,88,0.00,,,-99.99,0.000000,,2013-02-20 06:21:00,
2013-02-20 01:32:00,62.0,58.0,-100.00,NW,317,2.0,-999.0,88,0.00,,,-99.99,0.000000,,2013-02-20 06:32:00,
2013-02-20 01:42:00,61.0,58.0,-100.00,NW,314,2.0,-999.0,89,0.00,,,-99.99,0.000000,,2013-02-20 06:42:00,
2013-02-20 01:52:00,61.0,58.0,-100.00,NW,314,2.0,-999.0,89,0.00,,,-99.99,0.000000,,2013-02-20 06:52:00,
2013-02-20 02:01:00,60.0,57.0,-100.00,NNW,331,3.0,-999.0,90,0.00,,,-99.99,0.000000,,2013-02-20 07:01:00,
2013-02-20 02:11:00,59.0,57.0,-100.00,NW,317,1.0,-999.0,91,0.00,,,-99.99,0.000000,,2013-02-20 07:11:00,
2013-02-20 02:21:00,59.0,57.0,-100.00,NW,317,1.0,-999.0,91,0.00,,,-99.99,0.000000,,2013-02-20 07:21:00,
2013-02-20 02:31:00,59.0,57.0,-100.00,NNW,343,2.0,-999.0,92,0.00,,,-99.99,0.000000,,2013-02-20 07:31:00,
2013-02-20 02:42:00,58.0,56.0,-100.00,SW,224,1.0,-999.0,93,0.00,,,-99.99,0.000000,,2013-02-20 07:42:00,
2013-02-20 02:52:00,58.0,56.0,-100.00,SW,224,1.0,-999.0,93,0.00,,,-99.99,0.000000,,2013-02-20 07:52:00,
2013-02-20 03:05:00,58.0,57.0,-100.00,SE,135,2.0,-999.0,93,0.00,,,-99.99,0.000000,,2013-02-20 08:05:00,
2013-02-20 03:11:00,59.0,57.0,-100.00,North,6,1.0,-999.0,94,0.00,,,-99.99,0.000000,,2013-02-20 08:11:00,
2013-02-20 03:21:00,59.0,57.0,-100.00,North,6,1.0,-999.0,94,0.00,,,-99.99,0.000000,,2013-02-20 08:21:00,
2013-02-20 03:31:00,59.0,57.0,-100.00,SSW,207,1.0,-999.0,94,0.00,,,-99.99,0.000000,,2013-02-20 08:31:00,
2013-02-20 03:42:00,59.0,57.0,-100.00,North,7,1.0,-999.0,94,0.00,,,-99.99,0.000000,,2013-02-20 08:42:00,
2013-02-20 03:52:00,59.0,57.0,-100.00,North,7,1.0,-999.0,94,0.00,,,-99.99,0.000000,,2013-02-20 08:52:00,
2013-02-20 04:01:00,59.0,58.0,-100.00,North,6,1.0,-999.0,94,0.00,,,-99.99,0.000000,,2013-02-20 09:01:00,
2013-02-20 04:11:00,59.0,58.0,-100.00,North,353,2.0,-999.0,94,0.00,,,-99.99,0.000000,,2013-02-20 09:11:00,
2013-02-20 04:21:00,59.0,58.0,-100.00,North,353,2.0,-999.0,94,0.00,,,-99.99,0.000000,,2013-02-20 09:21:00,
2013-02-20 04:31:00,60.0,58.0,-100.00,NNW,337,5.0,-999.0,95,0.00,,,-99.99,0.000000,,2013-02-20 09:31:00,
2013-02-20 04:42:00,61.0,60.0,-100.00,North,352,7.0,-999.0,95,0.00,,,-99.99,0.000000,,2013-02-20 09:42:00,
2013-02-20 04:52:00,61.0,60.0,-100.00,North,352,7.0,-999.0,95,0.00,,,-99.99,0.000000,,2013-02-20 09:52:00,
2013-02-20 05:01:00,61.0,59.0,-100.00,North,358,5.0,-999.0,95,0.00,,,-99.99,0.000000,,2013-02-20 10:01:00,
2013-02-20 05:12:00,60.0,59.0,-100.00,North,6,6.0,-999.0,94,0.00,,,-99.99,0.000000,,2013-02-20 10:12:00,
2013-02-20 05:22:00,60.0,59.0,-100.00,North,6,6.0,-999.0,94,0.00,,,-99.99,0.000000,,2013-02-20 10:22:00,
2013-02-20 05:32:00,60.0,58.0,-100.00,North,6,7.0,-999.0,93,0.00,,,-99.99,0.000000,,2013-02-20 10:32:00,
2013-02-20 05:42:00,60.0,57.0,-100.00,North,7,6.0,-999.0,92,0.00,,,-99.99,0.000000,,2013-02-20 10:42:00,
2013-02-20 05:52:00,60.0,57.0,-100.00,North,7,6.0,-999.0,92,0.00,,,-99.99,0.000000,,2013-02-20 10:52:00,
2013-02-20 06:02:00,59.0,56.0,-100.00,North,6,5.0,-999.0,90,0.00,,,-99.99,0.000000,,2013-02-20 11:02:00,
2013-02-20 06:11:00,59.0,56.0,-100.00,North,4,5.0,-999.0,87,0.00,,,-99.99,0.000000,,2013-02-20 11:11:00,
2013-02-20 06:21:00,59.0,56.0,-100.00,North,4,5.0,-999.0,87,0.00,,,-99.99,0.000000,,2013-02-20 11:21:00,
2013-02-20 06:32:00,59.0,55.0,-100.00,North,9,4.0,-999.0,86,0.00,,,-99.99,0.000000,,2013-02-20 11:32:00,
2013-02-20 06:42:00,59.0,55.0,-100.00,North,3,3.0,-999.0,86,0.00,,,-99.99,0.000000,,2013-02-20 11:42:00,
2013-02-20 06:52:00,59.0,55.0,-100.00,North,3,3.0,-999.0,86,0.00,,,-99.99,0.000000,,2013-02-20 11:52:00,
2013-02-20 07:02:00,59.0,55.0,-100.00,North,7,3.0,-999.0,87,0.00,,,-99.99,0.000000,,2013-02-20 12:02:00,
2013-02-20 07:12:00,59.0,55.0,-100.00,North,357,4.0,-999.0,88,0.00,,,-99.99,1.200000,,2013-02-20 12:12:00,
2013-02-20 07:21:00,59.0,55.0,-100.00,North,357,4.0,-999.0,88,0.00,,,-99.99,1.200000,,2013-02-20 12:21:00,
2013-02-20 07:32:00,58.0,55.0,-100.00,North,6,6.0,-999.0,87,0.00,,,-99.99,12.900000,,2013-02-20 12:32:00,
2013-02-20 07:42:00,58.0,54.0,-100.00,North,6,6.0,-999.0,85,0.00,,,-99.99,33.599998,,2013-02-20 12:42:00,
2013-02-20 07:53:00,58.0,54.0,-100.00,North,6,6.0,-999.0,85,0.00,,,-99.99,33.599998,,2013-02-20 12:53:00,
2013-02-20 08:01:00,58.0,54.0,-100.00,North,352,6.0,-999.0,85,0.00,,,-99.99,47.700001,,2013-02-20 13:01:00,
2013-02-20 08:12:00,57.0,53.0,-100.00,North,1,6.0,-999.0,86,0.00,,,-99.99,60.400002,,2013-02-20 13:12:00,
2013-02-20 08:22:00,57.0,53.0,-100.00,North,1,6.0,-999.0,86,0.00,,,-99.99,60.400002,,2013-02-20 13:22:00,
2013-02-20 08:32:00,58.0,54.0,-100.00,NNE,14,7.0,-999.0,85,0.00,,,-99.99,138.300003,,2013-02-20 13:32:00,
2013-02-20 08:42:00,59.0,53.0,-100.00,NNE,13,7.0,-999.0,82,0.00,,,-99.99,210.600006,,2013-02-20 13:42:00,
2013-02-20 08:52:00,59.0,53.0,-100.00,NNE,13,7.0,-999.0,82,0.00,,,-99.99,210.600006,,2013-02-20 13:52:00,
2013-02-20 09:01:00,59.0,51.0,-100.00,NNE,15,9.0,-999.0,75,0.00,,,-99.99,254.199997,,2013-02-20 14:01:00,
2013-02-20 09:11:00,59.0,49.0,-100.00,NNE,21,9.0,-999.0,69,0.00,,,-99.99,263.000000,,2013-02-20 14:11:00,
2013-02-20 09:21:00,59.0,49.0,-100.00,NNE,21,9.0,-999.0,69,0.00,,,-99.99,263.000000,,2013-02-20 14:21:00,
2013-02-20 09:32:00,59.0,49.0,-100.00,NNE,21,9.0,-999.0,69,0.00,,,-99.99,263.000000,,2013-02-20 14:32:00,
2013-02-20 09:42:00,60.0,47.0,-100.00,NNE,13,9.0,-999.0,63,0.00,,,-99.99,403.700012,,2013-02-20 14:42:00,
2013-02-20 09:52:00,60.0,47.0,-100.00,NNE,13,9.0,-999.0,63,0.00,,,-99.99,403.700012,,2013-02-20 14:52:00,
2013-02-20 10:01:00,60.0,47.0,-100.00,NNE,24,9.0,-999.0,62,0.00,,,-99.99,432.299988,,2013-02-20 15:01:00,
2013-02-20 10:12:00,60.0,47.0,-100.00,NE,40,8.0,-999.0,60,0.00,,,-99.99,537.000000,,2013-02-20 15:12:00,
2013-02-20 10:22:00,60.0,47.0,-100.00,NE,40,8.0,-999.0,60,0.00,,,-99.99,537.000000,,2013-02-20 15:22:00,
2013-02-20 10:32:00,61.0,47.0,-100.00,NNE,30,8.0,-999.0,59,0.00,,,-99.99,490.200012,,2013-02-20 15:32:00,
2013-02-20 10:42:00,62.0,47.0,-100.00,North,11,7.0,-999.0,58,0.00,,,-99.99,640.599976,,2013-02-20 15:42:00,
2013-02-20 10:52:00,62.0,47.0,-100.00,North,11,7.0,-999.0,58,0.00,,,-99.99,640.599976,,2013-02-20 15:52:00,
2013-02-20 11:01:00,62.0,47.0,-100.00,NNE,14,6.0,-999.0,57,0.00,,,-99.99,662.200012,,2013-02-20 16:01:00,
2013-02-20 11:12:00,63.0,47.0,-100.00,NNE,33,6.0,-999.0,56,0.00,,,-99.99,679.799988,,2013-02-20 16:12:00,
2013-02-20 11:21:00,63.0,47.0,-100.00,NNE,33,6.0,-999.0,56,0.00,,,-99.99,679.799988,,2013-02-20 16:21:00,
2013-02-20 11:32:00,64.0,48.0,-100.00,NE,41,7.0,-999.0,55,0.00,,,-99.99,711.000000,,2013-02-20 16:32:00,
2013-02-20 11:42:00,65.0,49.0,-100.00,NNE,29,5.0,-999.0,55,0.00,,,-99.99,736.000000,,2013-02-20 16:42:00,
2013-02-20 11:52:00,65.0,49.0,-100.00,NNE,29,5.0,-999.0,55,0.00,,,-99.99,736.000000,,2013-02-20 16:52:00,
2013-02-20 12:01:00,67.0,49.0,-100.00,NE,39,4.0,-999.0,53,0.00,,,-99.99,740.000000,,2013-02-20 17:01:00,
2013-02-20 12:11:00,67.0,49.0,-100.00,NE,37,4.0,-999.0,52,0.00,,,-99.99,758.000000,,2013-02-20 17:11:00,
2013-02-20 12:21:00,67.0,49.0,-100.00,NE,37,4.0,-999.0,52,0.00,,,-99.99,758.000000,,2013-02-20 17:21:00,
2013-02-20 12:32:00,68.0,50.0,-100.00,NE,42,4.0,-999.0,52,0.00,,,-99.99,752.000000,,2013-02-20 17:32:00,
2013-02-20 12:42:00,69.0,50.0,-100.00,NNE,14,5.0,-999.0,51,0.00,,,-99.99,738.000000,,2013-02-20 17:42:00,
2013-02-20 12:52:00,69.0,50.0,-100.00,NNE,14,5.0,-999.0,51,0.00,,,-99.99,738.000000,,2013-02-20 17:52:00,
2013-02-20 13:02:00,69.0,51.0,-100.00,NE,36,4.0,-999.0,51,0.00,,,-99.99,732.000000,,2013-02-20 18:02:00,
2013-02-20 13:11:00,69.0,51.0,-100.00,NE,36,4.0,-999.0,51,0.00,,,-99.99,732.000000,,2013-02-20 18:11:00,
2013-02-20 13:21:00,70.0,51.0,-100.00,ENE,64,6.0,-999.0,52,0.00,,,-99.99,784.000000,,2013-02-20 18:21:00,
2013-02-20 13:32:00,70.0,51.0,-100.00,ENE,64,6.0,-999.0,52,0.00,,,-99.99,784.000000,,2013-02-20 18:32:00,
2013-02-20 13:42:00,71.0,52.0,-100.00,North,353,4.0,-999.0,50,0.00,,,-99.99,624.799988,,2013-02-20 18:42:00,
2013-02-20 13:52:00,71.0,52.0,-100.00,North,353,4.0,-999.0,50,0.00,,,-99.99,624.799988,,2013-02-20 18:52:00,
2013-02-20 14:01:00,72.0,52.0,-100.00,NNE,23,4.0,-999.0,50,0.00,,,-99.99,654.500000,,2013-02-20 19:01:00,
2013-02-20 14:11:00,72.0,53.0,-100.00,ESE,113,4.0,-999.0,50,0.00,,,-99.99,580.900024,,2013-02-20 19:11:00,
2013-02-20 14:21:00,72.0,53.0,-100.00,ESE,113,4.0,-999.0,50,0.00,,,-99.99,580.900024,,2013-02-20 19:21:00,
2013-02-20 14:31:00,73.0,53.0,-100.00,ENE,57,3.0,-999.0,49,0.00,,,-99.99,487.399994,,2013-02-20 19:31:00,
2013-02-20 14:41:00,73.0,53.0,-100.00,ENE,57,3.0,-999.0,49,0.00,,,-99.99,487.399994,,2013-02-20 19:41:00,
2013-02-20 14:52:00,72.0,53.0,-100.00,NNW,338,3.0,-999.0,50,0.00,,,-99.99,381.100006,,2013-02-20 19:52:00,
2013-02-20 15:01:00,72.0,53.0,-100.00,NNW,327,3.0,-999.0,50,0.00,,,-99.99,329.000000,,2013-02-20 20:01:00,
2013-02-20 15:11:00,73.0,53.0,-100.00,North,350,2.0,-999.0,50,0.00,,,-99.99,338.899994,,2013-02-20 20:11:00,
2013-02-20 15:21:00,73.0,53.0,-100.00,North,350,2.0,-999.0,50,0.00,,,-99.99,338.899994,,2013-02-20 20:21:00,
2013-02-20 15:31:00,72.0,53.0,-100.00,NW,325,3.0,-999.0,50,0.00,,,-99.99,266.299988,,2013-02-20 20:31:00,
2013-02-20 15:41:00,72.0,53.0,-100.00,NW,317,2.0,-999.0,51,0.00,,,-99.99,230.000000,,2013-02-20 20:41:00,
2013-02-20 15:52:00,72.0,53.0,-100.00,NW,317,2.0,-999.0,51,0.00,,,-99.99,230.000000,,2013-02-20 20:52:00,
2013-02-20 16:01:00,72.0,53.0,-100.00,NNW,337,3.0,-999.0,51,0.00,,,-99.99,208.199997,,2013-02-20 21:01:00,
2013-02-20 16:11:00,72.0,54.0,-100.00,WNW,290,4.0,-999.0,52,0.00,,,-99.99,191.800003,,2013-02-20 21:11:00,
2013-02-20 16:21:00,72.0,54.0,-100.00,WNW,290,4.0,-999.0,52,0.00,,,-99.99,191.800003,,2013-02-20 21:21:00,
2013-02-20 16:31:00,71.0,54.0,-100.00,West,269,4.0,-999.0,54,0.00,,,-99.99,146.500000,,2013-02-20 21:31:00,
2013-02-20 16:42:00,71.0,54.0,-100.00,WNW,287,3.0,-999.0,54,0.00,,,-99.99,118.800003,,2013-02-20 21:42:00,
2013-02-20 16:52:00,71.0,54.0,-100.00,WNW,287,3.0,-999.0,54,0.00,,,-99.99,118.800003,,2013-02-20 21:52:00,
2013-02-20 17:01:00,71.0,53.0,-100.00,NNW,333,5.0,-999.0,52,0.00,,,-99.99,97.099998,,2013-02-20 22:01:00,
2013-02-20 17:11:00,70.0,52.0,-100.00,NNW,343,5.0,-999.0,52,0.00,,,-99.99,93.699997,,2013-02-20 22:11:00,
2013-02-20 17:21:00,70.0,52.0,-100.00,NNW,343,5.0,-999.0,52,0.00,,,-99.99,93.699997,,2013-02-20 22:21:00,
2013-02-20 17:31:00,70.0,52.0,-100.00,NNW,348,3.0,-999.0,53,0.00,,,-99.99,70.500000,,2013-02-20 22:31:00,
2013-02-20 17:43:00,67.0,51.0,-100.00,ENE,58,8.0,-999.0,55,0.00,,,-99.99,62.700001,,2013-02-20 22:43:00,
2013-02-20 17:52:00,67.0,51.0,-100.00,ENE,58,8.0,-999.0,55,0.00,,,-99.99,62.700001,,2013-02-20 22:52:00,
2013-02-20 18:01:00,65.0,50.0,-100.00,ENE,61,8.0,-999.0,57,0.00,,,-99.99,52.200001,,2013-02-20 23:01:00,
2013-02-20 18:12:00,64.0,50.0,-100.00,ENE,78,8.0,-999.0,60,0.00,,,-99.99,27.000000,,2013-02-20 23:12:00,
2013-02-20 18:22:00,64.0,50.0,-100.00,ENE,78,8.0,-999.0,60,0.00,,,-99.99,27.000000,,2013-02-20 23:22:00,
2013-02-20 18:32:00,64.0,50.0,-100.00,ENE,78,8.0,-999.0,60,0.00,,,-99.99,27.000000,,2013-02-20 23:32:00,
2013-02-20 18:42:00,62.0,50.0,-100.00,ENE,60,6.0,-999.0,63,0.00,,,-99.99,1.600000,,2013-02-20 23:42:00,
2013-02-20 18:52:00,62.0,50.0,-100.00,ENE,60,6.0,-999.0,63,0.00,,,-99.99,1.600000,,2013-02-20 23:52:00,
2013-02-20 19:03:00,62.0,50.0,-100.00,ENE,61,6.0,-999.0,64,0.00,,,-99.99,0.100000,,2013-02-21 00:03:00,
2013-02-20 19:11:00,62.0,50.0,-100.00,ENE,61,6.0,-999.0,64,0.00,,,-99.99,0.100000,,2013-02-21 00:11:00,
2013-02-20 19:22:00,61.0,49.0,-100.00,ENE,63,4.0,-999.0,66,0.00,,,-99.99,0.000000,,2013-02-21 00:22:00,
2013-02-20 19:32:00,60.0,49.0,-100.00,ENE,63,4.0,-999.0,68,0.00,,,-99.99,0.000000,,2013-02-21 00:32:00,
2013-02-20 19:42:00,59.0,49.0,-100.00,NNE,32,4.0,-999.0,69,0.00,,,-99.99,0.000000,,2013-02-21 00:42:00,
2013-02-20 19:52:00,59.0,49.0,-100.00,NNE,32,4.0,-999.0,69,0.00,,,-99.99,0.000000,,2013-02-21 00:52:00,
2013-02-20 20:01:00,58.0,49.0,-100.00,NNE,24,4.0,-999.0,71,0.00,,,-99.99,0.000000,,2013-02-21 01:01:00,
2013-02-20 20:11:00,58.0,49.0,-100.00,NNE,29,4.0,-999.0,73,0.00,,,-99.99,0.000000,,2013-02-21 01:11:00,
2013-02-20 20:21:00,58.0,49.0,-100.00,NNE,29,4.0,-999.0,73,0.00,,,-99.99,0.000000,,2013-02-21 01:21:00,
2013-02-20 20:32:00,57.0,49.0,-100.00,NE,37,3.0,-999.0,73,0.00,,,-99.99,0.000000,,2013-02-21 01:32:00,
2013-02-20 20:42:00,57.0,49.0,-100.00,NNE,16,4.0,-999.0,75,0.00,,,-99.99,0.000000,,2013-02-21 01:42:00,
2013-02-20 20:52:00,57.0,49.0,-100.00,NNE,16,4.0,-999.0,75,0.00,,,-99.99,0.000000,,2013-02-21 01:52:00,
2013-02-20 21:01:00,56.0,49.0,-100.00,North,11,4.0,-999.0,77,0.00,,,-99.99,0.000000,,2013-02-21 02:01:00,
2013-02-20 21:11:00,56.0,49.0,-100.00,NE,46,3.0,-999.0,77,0.00,,,-99.99,0.000000,,2013-02-21 02:11:00,
2013-02-20 21:21:00,56.0,49.0,-100.00,NE,46,3.0,-999.0,77,0.00,,,-99.99,0.000000,,2013-02-21 02:21:00,
2013-02-20 21:32:00,56.0,49.0,-100.00,NE,43,3.0,-999.0,77,0.00,,,-99.99,0.000000,,2013-02-21 02:32:00,
2013-02-20 21:42:00,56.0,49.0,-100.00,NE,43,3.0,-999.0,77,0.00,,,-99.99,0.000000,,2013-02-21 02:42:00,
2013-02-20 21:52:00,56.0,49.0,-100.00,NE,43,3.0,-999.0,77,0.00,,,-99.99,0.000000,,2013-02-21 02:52:00,
2013-02-20 22:02:00,55.0,49.0,-100.00,ENE,67,3.0,-999.0,79,0.00,,,-99.99,0.000000,,2013-02-21 03:02:00,
2013-02-20 22:12:00,55.0,49.0,-100.00,ENE,58,3.0,-999.0,80,0.00,,,-99.99,0.000000,,2013-02-21 03:12:00,
2013-02-20 22:21:00,55.0,49.0,-100.00,ENE,58,3.0,-999.0,80,0.00,,,-99.99,0.000000,,2013-02-21 03:21:00,
2013-02-20 22:32:00,55.0,49.0,-100.00,ENE,77,4.0,-999.0,81,0.00,,,-99.99,0.000000,,2013-02-21 03:32:00,
2013-02-20 22:42:00,54.0,49.0,-100.00,East,82,4.0,-999.0,84,0.00,,,-99.99,0.000000,,2013-02-21 03:42:00,
2013-02-20 22:52:00,54.0,49.0,-100.00,East,82,4.0,-999.0,84,0.00,,,-99.99,0.000000,,2013-02-21 03:52:00,
2013-02-20 23:01:00,54.0,49.0,-100.00,ENE,61,3.0,-999.0,84,0.00,,,-99.99,0.000000,,2013-02-21 04:01:00,
2013-02-20 23:11:00,54.0,49.0,-100.00,East,79,3.0,-999.0,84,0.00,,,-99.99,0.000000,,2013-02-21 04:11:00,
2013-02-20 23:22:00,54.0,49.0,-100.00,East,79,3.0,-999.0,84,0.00,,,-99.99,0.000000,,2013-02-21 04:22:00,
2013-02-20 23:32:00,53.0,49.0,-100.00,ENE,69,3.0,-999.0,85,0.00,,,-99.99,0.000000,,2013-02-21 04:32:00,
2013-02-20 23:42:00,53.0,49.0,-100.00,ENE,69,3.0,-999.0,85,0.00,,,-99.99,0.000000,,2013-02-21 04:42:00,
2013-02-20 23:52:00,54.0,50.0,-100.00,NNE,28,3.0,-999.0,86,0.00,,,-99.99,0.000000,,2013-02-21 04:52:00,